Wind_Speed
13 13 13 12 12 12 12 12 11 11 10 10 10 10 9 9 8 8 8 8 7 8 9 9 9 9 9 9 9 10 10 10 10 10 10 10 10 10 10 10 10 11 11
15 15 14 14 13 13 13 13 13 12 12 11 11 11 11 10 10 9 9 9 9 9 10 10 10 11 11 10 11 11 11 12 12 12 12 11 12 12 12 12 13 13 13
16 16 16 15 15 15 15 14 14 14 14 13 12 11 11 11 11 11 10 10 10 11 11 12 12 12 12 12 12 13 13 13 14 14 13 13 13 13 14 14 14 15 15
17 17 17 17 17 16 16 16 15 15 14 13 13 13 13 13 13 13 12 12 12 12 13 13 13 13 13 14 14 14 14 14 15 15 15 15 15 15 15 16 16 16 17
20 19 19 19 19 18 18 17 17 17 16 15 15 14 15 15 15 15 15 14 14 14 14 14 14 14 15 15 15 16 16 16 16 16 16 17 16 16 17 17 18 18 19
22 21 21 20 19 20 19 19 19 18 18 18 16 16 16 17 17 16 17 16 15 16 16 16 16 17 17 17 17 17 17 18 18 18 18 18 18 19 19 19 19 20 21
23 23 23 22 22 21 21 21 20 20 19 19 19 17 17 17 18 18 18 18 18 18 18 18 18 19 19 20 20 19 19 20 20 20 20 20 20 21 21 21 21 22 22
25 25 25 24 24 23 22 22 22 21 21 21 21 19 18 19 19 20 20 20 20 20 20 20 21 21 21 21 22 22 21 21 21 22 22 22 22 22 23 24 24 24 25
26 26 26 26 25 25 24 24 23 23 23 22 23 22 21 21 21 21 22 22 22 22 22 22 22 23 23 23 23 23 23 23 23 23 23 23 24 24 25 26 26 26 26
26 27 27 27 26 26 26 25 25 25 24 25 25 24 23 23 23 23 23 24 23 23 23 24 24 24 25 25 25 25 25 25 25 25 25 26 26 26 26 27 27 27 28
27 27 28 28 28 28 27 27 27 26 26 26 26 27 26 26 25 25 25 25 25 25 25 26 26 26 26 26 26 27 27 27 26 27 27 27 27 28 28 28 28 28 29
28 28 28 29 29 29 29 28 28 27 27 28 28 28 28 28 27 28 28 27 27 28 28 28 28 28 28 28 28 29 29 29 29 28 28 28 29 29 30 31 31 31 31
29 29 29 29 30 30 30 30 30 29 29 29 30 30 31 30 30 30 30 30 29 30 30 30 30 31 30 30 31 31 31 31 31 31 30 30 31 31 32 32 33 34 34
31 30 30 30 31 31 31 32 32 31 31 31 31 31 32 33 32 32 32 32 32 32 31 32 32 33 33 32 32 32 33 33 33 33 33 33 33 33 34 35 35 36 36
33 32 32 32 32 32 32 33 33 33 34 34 34 34 34 35 35 34 34 35 35 34 34 34 34 34 34 34 34 34 34 34 34 34 35 35 35 35 36 36 36 37 37
34 34 34 34 33 34 34 34 34 35 35 35 35 36 36 36 37 37 36 36 36 36 36 36 35 35 35 36 35 35 35 35 35 35 36 37 37 38 38 38 38 38 38
35 35 35 35 35 36 36 36 36 36 36 37 37 38 38 38 38 38 38 38 38 38 37 37 38 38 37 37 37 37 37 37 37 38 37 37 38 39 40 40 40 41 40
36 36 36 36 36 37 37 37 38 38 38 38 38 39 39 39 40 40 40 39 39 39 39 38 39 39 39 38 38 38 38 39 39 39 39 39 40 40 40 41 42 42 41
36 37 37 37 38 38 38 38 39 39 40 40 40 39 40 40 40 41 42 42 41 41 40 40 41 41 40 40 40 40 40 40 40 40 40 40 41 41 41 41 41 42 42
38 39 39 38 39 38 39 39 39 40 40 41 41 41 41 41 41 42 42 42 42 42 41 41 42 42 42 42 41 41 41 41 41 41 41 41 42 42 42 42 42 42 42
38 39 39 40 40 40 40 40 40 41 41 41 42 42 42 42 43 43 42 41 42 42 42 42 43 43 43 42 42 42 43 42 42 42 42 42 42 42 43 44 44 44 44
39 39 40 40 41 41 41 42 42 42 42 42 43 43 44 44 43 43 43 42 42 42 42 42 43 44 44 44 44 43 43 43 43 43 43 43 43 44 44 45 45 45 45
40 40 40 41 41 42 42 43 43 44 44 44 44 45 45 45 45 44 43 43 43 42 42 43 43 43 43 43 44 44 43 43 44 44 45 46 46 46 46 46 46 47 47
40 40 41 42 42 42 43 43 44 44 44 44 45 45 45 45 45 45 44 44 44 44 44 44 43 43 43 43 43 44 44 44 45 45 45 46 46 46 46 46 46 47 47
40 41 41 41 41 42 43 43 44 44 44 45 45 45 45 46 46 46 46 46 46 46 45 45 45 44 44 43 44 44 44 44 44 45 44 44 44 45 45 45 45 46 46
39 40 40 40 40 41 42 43 44 44 44 45 46 46 46 47 47 47 47 47 46 46 45 45 45 45 45 45 44 44 44 44 44 44 43 43 43 44 44 45 45 45 46
Wind_Direction
248 247 247 249 249 250 252 253 254 254 257 257 257 258 260 263 266 268 271 275 276 277 275 276 277 278 279 279 276 276 277 277 277 276 275 274 274 275 275 276 278 279 280
249 248 248 249 250 252 254 255 256 256 258 260 263 262 259 260 263 266 268 271 274 277 276 276 277 277 277 278 278 277 276 276 277 278 276 274 275 276 276 276 276 278 278
248 248 248 249 251 254 255 257 257 258 259 261 262 263 263 262 262 266 268 270 273 276 276 277 277 276 276 277 277 276 276 276 275 276 276 274 275 276 276 277 278 278 279
247 248 249 251 251 254 256 257 256 256 258 260 262 263 264 264 263 265 268 271 274 275 275 276 277 277 278 278 275 274 274 274 273 273 274 275 275 275 276 278 278 279 279
246 247 249 251 252 252 254 255 256 258 259 261 262 263 264 263 264 265 268 271 274 274 275 274 274 274 276 277 277 275 275 273 272 272 272 274 274 275 277 278 278 279 279
246 248 249 251 252 253 253 254 256 257 259 261 262 263 263 262 264 267 268 270 272 274 273 274 274 273 274 273 274 275 276 275 274 273 272 273 274 275 277 279 278 279 278
247 248 250 251 252 253 254 255 256 258 259 262 261 261 263 263 264 266 268 269 270 272 274 274 275 275 275 275 274 273 274 274 277 278 276 275 275 276 277 278 278 279 280
249 248 249 252 253 254 254 255 256 257 259 260 260 260 261 263 265 266 269 270 270 271 273 275 276 277 276 276 276 275 274 275 275 277 277 276 276 276 276 278 278 278 279
250 249 249 251 252 253 254 254 256 257 258 260 260 260 261 264 266 267 268 270 270 271 273 274 276 278 277 277 275 275 275 275 275 276 275 276 277 276 277 278 278 278 279
252 251 250 251 252 253 255 256 257 258 258 259 260 259 261 264 265 267 267 268 269 271 272 274 275 276 276 275 275 273 273 274 275 274 275 275 276 277 277 277 277 278 279
253 251 251 250 252 254 256 257 257 258 258 258 259 260 260 263 264 266 268 268 269 270 272 273 274 275 275 275 274 273 273 273 274 274 275 274 275 276 277 277 277 276 278
253 253 253 251 252 254 256 257 257 257 258 260 259 261 261 263 264 265 267 269 270 271 271 272 273 274 273 274 273 273 273 273 273 274 274 274 275 276 277 277 278 277 278
253 253 254 254 253 254 255 257 257 257 258 260 260 260 260 262 264 266 267 269 269 271 272 271 272 272 272 273 273 272 272 272 273 273 274 274 275 276 278 278 279 279 280
253 254 255 255 254 255 256 256 256 257 258 260 260 262 262 262 264 265 267 268 269 271 272 272 271 272 272 272 272 272 271 271 272 273 274 274 275 276 277 278 278 279 280
254 254 255 254 256 257 258 258 258 258 259 260 261 262 263 263 263 265 267 268 270 271 271 272 272 273 273 272 271 272 272 271 272 273 274 275 275 276 278 278 278 279 281
254 255 256 256 257 258 260 260 259 260 260 260 261 262 263 264 265 265 268 268 270 270 271 272 272 273 273 273 272 272 273 272 272 274 275 276 276 278 279 278 278 279 281
254 255 255 257 258 259 260 261 261 262 261 261 261 262 263 264 264 266 267 268 269 270 270 271 272 273 273 274 273 273 273 273 273 274 275 276 277 278 278 278 278 280 280
256 256 257 258 258 259 260 261 262 262 262 262 262 262 264 266 266 267 267 268 269 270 271 271 272 272 273 274 274 273 273 274 275 275 275 275 277 277 277 278 278 279 279
256 258 258 259 259 259 260 261 261 262 262 263 263 263 264 265 267 268 267 267 269 271 271 271 271 272 273 273 274 273 274 275 275 276 276 276 276 277 277 277 278 279 280
256 258 259 259 259 260 260 260 260 261 262 263 264 264 265 265 267 268 269 268 269 270 271 271 272 272 272 272 272 273 274 275 275 276 276 276 277 277 277 278 279 279 280
255 257 258 259 259 261 261 260 260 261 262 263 264 265 265 266 267 268 269 269 269 269 269 270 271 271 271 272 272 273 274 275 274 275 275 276 278 278 277 278 280 279 279
256 257 258 258 259 260 260 261 261 262 262 264 264 265 266 266 267 268 269 270 270 270 270 271 271 271 271 272 273 273 273 274 275 274 275 277 277 277 277 278 279 280 279
258 258 258 259 260 260 261 261 262 262 263 263 264 265 266 266 266 267 268 269 269 270 270 271 271 271 271 272 272 273 273 274 274 275 275 276 277 276 278 279 279 280 280
259 259 260 260 261 261 262 263 263 264 264 264 264 265 266 267 267 267 268 268 268 268 270 270 270 271 271 272 272 274 274 275 275 276 276 277 277 277 278 279 280 280 281
258 259 260 260 262 263 264 264 264 265 265 265 266 266 266 267 267 268 267 268 269 268 269 270 269 270 271 272 273 274 274 275 276 276 276 276 276 277 279 280 280 281 282
259 259 260 261 263 264 264 264 264 265 266 265 266 266 267 267 268 268 268 268 268 268 268 269 269 269 270 271 272 273 274 275 276 277 277 277 277 278 279 280 280 281 282
Height
5836 5837 5838 5838 5839 5840 5841 5841 5842 5842 5842 5843 5844 5844 5845 5845 5846 5847 5848 5848 5848 5849 5849 5850 5850 5850 5851 5851 5851 5852 5852 5852 5852 5852 5853 5853 5853 5853 5853 5854 5854 5854 5854
5834 5835 5836 5836 5837 5838 5838 5839 5840 5840 5840 5841 5842 5842 5843 5843 5844 5845 5846 5846 5847 5847 5847 5848 5848 5848 5849 5849 5849 5849 5850 5849 5850 5850 5850 5850 5851 5851 5851 5851 5851 5852 5852
5831 5832 5833 5834 5834 5835 5836 5837 5837 5838 5838 5839 5839 5840 5840 5841 5842 5843 5843 5844 5845 5845 5845 5846 5846 5846 5846 5847 5847 5847 5847 5847 5847 5847 5848 5848 5848 5848 5849 5849 5849 5849 5849
5828 5829 5830 5831 5831 5832 5833 5834 5834 5835 5835 5836 5837 5837 5838 5839 5840 5840 5841 5841 5842 5843 5843 5843 5843 5843 5844 5844 5844 5844 5844 5844 5845 5845 5845 5845 5845 5846 5846 5846 5846 5846 5846
5824 5825 5826 5827 5828 5829 5830 5831 5831 5832 5833 5833 5834 5834 5835 5836 5837 5837 5838 5839 5839 5840 5840 5840 5841 5840 5841 5841 5841 5841 5841 5841 5841 5842 5842 5842 5842 5842 5842 5842 5842 5842 5842
5820 5821 5822 5823 5824 5825 5826 5827 5828 5829 5829 5830 5831 5831 5832 5833 5833 5834 5835 5836 5836 5836 5837 5837 5837 5837 5837 5838 5838 5837 5838 5838 5838 5838 5838 5838 5838 5839 5839 5838 5838 5838 5838
5815 5817 5818 5819 5820 5821 5822 5823 5824 5825 5826 5826 5827 5828 5828 5829 5830 5831 5831 5832 5832 5833 5833 5834 5834 5834 5834 5834 5834 5834 5834 5834 5834 5834 5834 5834 5834 5835 5835 5834 5834 5834 5834
5810 5812 5813 5814 5815 5817 5817 5819 5819 5820 5821 5822 5823 5824 5824 5825 5826 5827 5827 5828 5828 5829 5829 5829 5829 5829 5830 5830 5829 5829 5829 5830 5829 5829 5830 5830 5830 5830 5830 5830 5830 5829 5829
5805 5807 5808 5809 5810 5812 5813 5814 5815 5816 5817 5817 5818 5819 5820 5821 5821 5822 5823 5823 5824 5824 5824 5825 5825 5825 5825 5825 5825 5825 5825 5825 5825 5825 5825 5825 5825 5825 5825 5824 5824 5824 5824
5800 5801 5802 5804 5805 5806 5808 5809 5809 5811 5812 5813 5813 5815 5816 5816 5817 5817 5818 5818 5819 5819 5819 5820 5820 5820 5819 5819 5819 5819 5819 5820 5820 5820 5820 5820 5820 5820 5819 5819 5818 5818 5818
5794 5795 5797 5798 5800 5801 5802 5803 5804 5805 5806 5807 5808 5809 5810 5811 5812 5812 5812 5813 5813 5814 5814 5814 5814 5814 5814 5814 5813 5814 5814 5814 5814 5814 5814 5814 5814 5814 5813 5813 5812 5812 5812
5788 5789 5791 5792 5794 5795 5796 5797 5799 5800 5801 5802 5802 5803 5804 5805 5806 5807 5807 5807 5808 5808 5808 5808 5808 5808 5808 5808 5808 5808 5808 5808 5808 5808 5808 5808 5808 5808 5807 5806 5806 5805 5805
5782 5783 5785 5786 5787 5789 5790 5791 5793 5794 5795 5796 5797 5797 5798 5799 5800 5800 5801 5801 5801 5802 5802 5802 5802 5802 5802 5802 5801 5801 5801 5802 5802 5802 5802 5802 5801 5801 5800 5799 5799 5798 5797
5776 5777 5778 5779 5781 5782 5783 5785 5786 5787 5788 5789 5790 5791 5792 5792 5793 5794 5794 5794 5795 5795 5795 5795 5795 5795 5795 5795 5795 5794 5794 5795 5795 5795 5795 5794 5794 5794 5793 5792 5791 5790 5790
5769 5771 5772 5773 5774 5776 5777 5778 5779 5780 5782 5783 5783 5784 5785 5785 5786 5787 5787 5787 5788 5788 5788 5788 5788 5788 5787 5787 5787 5787 5787 5787 5787 5787 5787 5787 5787 5786 5785 5784 5783 5782 5782
5762 5764 5765 5766 5768 5769 5770 5771 5772 5773 5774 5775 5776 5777 5777 5778 5779 5779 5779 5780 5780 5780 5780 5780 5780 5780 5780 5780 5780 5780 5779 5779 5779 5779 5779 5779 5778 5778 5777 5776 5775 5774 5773
5755 5756 5757 5759 5760 5761 5762 5764 5764 5765 5766 5767 5768 5768 5769 5770 5770 5771 5771 5771 5772 5772 5772 5772 5772 5772 5772 5771 5771 5771 5771 5771 5771 5771 5771 5770 5770 5769 5768 5767 5766 5765 5764
5747 5748 5750 5751 5752 5753 5754 5755 5757 5757 5758 5759 5759 5760 5761 5761 5762 5762 5762 5763 5763 5763 5763 5763 5763 5763 5763 5763 5763 5763 5763 5762 5762 5762 5762 5761 5760 5759 5759 5757 5756 5755 5754
5738 5740 5741 5742 5744 5745 5746 5747 5748 5749 5749 5750 5751 5751 5752 5752 5752 5753 5753 5753 5754 5754 5754 5754 5755 5754 5754 5754 5754 5754 5753 5753 5753 5753 5752 5751 5751 5750 5749 5748 5747 5746 5744
5730 5731 5732 5734 5735 5736 5737 5738 5739 5740 5740 5741 5742 5742 5743 5743 5743 5743 5743 5743 5744 5744 5745 5745 5745 5745 5745 5745 5745 5744 5744 5744 5744 5743 5742 5742 5741 5740 5739 5738 5737 5735 5734
5721 5722 5723 5725 5726 5727 5728 5729 5730 5730 5731 5731 5732 5733 5733 5733 5734 5734 5734 5734 5734 5734 5734 5735 5735 5735 5735 5735 5735 5735 5734 5734 5734 5733 5733 5732 5731 5730 5729 5727 5726 5725 5723
5711 5713 5714 5715 5716 5717 5718 5719 5720 5721 5721 5722 5722 5722 5723 5723 5724 5724 5724 5724 5724 5724 5724 5724 5724 5725 5725 5725 5725 5725 5725 5725 5723 5723 5722 5721 5720 5719 5718 5717 5715 5714 5712
5701 5703 5704 5705 5706 5707 5708 5709 5710 5710 5711 5712 5712 5712 5712 5713 5713 5714 5714 5714 5714 5714 5714 5714 5714 5714 5714 5714 5714 5714 5714 5714 5713 5713 5712 5710 5709 5708 5707 5705 5704 5702 5701
5691 5692 5694 5695 5696 5697 5697 5698 5699 5700 5701 5701 5701 5702 5702 5702 5702 5703 5704 5704 5703 5703 5703 5703 5703 5703 5703 5703 5703 5703 5703 5702 5702 5702 5701 5699 5698 5697 5696 5694 5693 5691 5689
5681 5682 5683 5685 5685 5686 5687 5688 5688 5689 5690 5690 5690 5691 5691 5691 5692 5692 5692 5692 5692 5692 5692 5692 5692 5692 5692 5692 5692 5692 5691 5691 5690 5690 5690 5689 5687 5686 5684 5683 5681 5679 5677
5671 5672 5673 5674 5675 5676 5677 5677 5678 5678 5679 5679 5680 5680 5680 5680 5681 5681 5681 5681 5681 5681 5681 5681 5681 5681 5681 5681 5681 5680 5680 5680 5679 5678 5678 5677 5676 5675 5673 5671 5669 5667 5666